{"data":{"norad_id":63658,"intl_designator":"2025-083AA","name":"STARLINK-33822","alt_names":[],"object_type":"PAYLOAD","status":"ACTIVE","operator":null,"country":"US","launch_date":"2025-04-25","launch_site_code":"AFETR","launch_vehicle":null,"mission":null,"orbit_class":"UNKNOWN","rcs_meters":null,"size_class":null,"mass_kg":null,"dimensions":null,"purposes":["comms"],"wikipedia_slug":null,"has_3d_model":false,"image_url":null,"decayed_at":null,"tle_current":{"epoch":"2026-09-20T22:11:30.569568Z","epoch_age_seconds":116150,"freshness":"FRESH","line1":"1 63658U 25083AA  26263.92465937  .00009557  00000+0  35629-3 0  9993","line2":"2 63658  43.0006 342.7814 0002089 267.6655  92.3957 15.27587509 79952","mean_motion":15.27587509,"eccentricity":0.0002089,"inclination_deg":43.0006,"raan_deg":342.7814,"arg_perigee_deg":267.6655,"mean_anomaly_deg":92.3957,"bstar":0.00035629,"rev_number":7995,"period_min":94.266285336587,"perigee_km":481.59331440597,"apogee_km":484.45990856285,"semimajor_km":6861.1636114844,"source":"CELESTRAK","updated_at":"2026-09-21T09:00:35.055945Z"}}}